[[{"header":{"parameterUnit":"m.s-1","parameterCategory":1,"la1":30.2992,"la2":30.254,"lo1":-89.0895,"lo2":-89.0443,"dy":0.0025,"dx":0.0025,"nx":19,"ny":19,"refTime":"2026-04-24T03:00:00:Z","depth":0,"parameterNumber":2,"parameterNumberName":"U-component_of_WINDS"},"data":[0,0,0,-1.647,-1.6473,-1.659,-1.6591,-1.6734,-1.6735,0,0,0,0,0,0,0,0,0,0,0,-1.6429,-1.643,-1.647,-1.6473,-1.659,-1.6591,-1.6734,-1.6735,0,0,0,0,0,0,0,0,0,0,0,-1.6429,-1.6429,-1.643,-1.6473,-1.659,-1.6591,-1.6733,-1.6648,0,0,0,0,0,0,0,0,0,0,-1.6536,-1.649,-1.6429,-1.643,-1.6474,-1.659,-1.6591,-1.6644,-1.6653,-1.6677,0,-1.6694,0,-1.6716,-1.6744,-1.6744,0,0,0,-1.6479,-1.6482,-1.6519,-1.643,-1.6475,-1.659,-1.6539,-1.6649,-1.666,-1.6689,-1.6696,-1.6701,-1.6719,-1.6745,-1.6745,-1.6856,-1.6856,0,0,-1.6472,-1.6447,-1.6512,-1.6526,-1.6504,-1.6535,-1.6542,-1.6656,-1.6662,-1.6696,-1.6705,-1.6721,-1.6746,-1.6747,-1.6856,-1.6856,0,0,0,-1.645,-1.6442,-1.6477,-1.652,-1.6541,-1.6538,-1.6547,-1.6657,-1.6671,-1.6707,-1.6723,-1.6746,-1.6748,-1.6856,-1.6856,-1.6842,0,0,0,-1.6446,-1.6429,-1.6474,-1.646,-1.6539,-1.66,-1.6546,-1.6663,-1.6676,-1.6722,-1.6746,-1.6749,-1.6855,-1.6856,-1.6842,-1.684,0,0,0,-1.6424,-1.6427,-1.6441,-1.6458,-1.6507,-1.6599,-1.6619,-1.6666,-1.6686,-1.6744,-1.675,-1.6855,-1.6856,-1.6841,-1.6839,-1.6861,0,0,0,-1.6393,-1.6428,-1.644,-1.6486,-1.6506,-1.6588,-1.6618,-1.6682,-1.673,-1.6747,-1.6855,-1.6856,-1.6841,-1.6839,-1.686,-1.6874,-1.6877,0,0,-1.6423,-1.643,-1.6459,-1.6474,-1.6547,-1.6573,-1.6645,-1.6715,-1.6746,-1.6818,-1.6821,-1.6842,-1.6839,-1.6861,-1.6904,-1.6906,0,0,0,-1.646,-1.6481,-1.6506,-1.6549,-1.6602,-1.6647,-1.6708,-1.6735,-1.6797,-1.6777,-1.6856,-1.6856,-1.6869,-1.6877,-1.6879,-1.6893,-1.6858,-1.6858,-1.6858,-1.6466,-1.6501,-1.6552,-1.6601,-1.6643,-1.6705,-1.6744,-1.679,-1.6815,-1.6833,-1.6855,-1.6876,-1.6884,-1.6885,-1.6899,-1.6865,-1.6865,-1.6865,-1.6865,-1.6513,-1.6548,-1.6578,-1.6638,-1.6676,-1.6728,-1.679,-1.6806,-1.6861,-1.6862,-1.6876,-1.6875,-1.6886,-1.69,-1.6864,-1.6864,-1.6864,-1.6864,-1.6864,-1.6521,-1.6543,-1.6573,-1.6639,-1.6688,-1.6738,-1.6789,-1.6822,-1.6855,-1.6868,-1.6895,-1.6896,-1.69,-1.6879,-1.6879,-1.6879,-1.6879,-1.6879,-1.6879,-1.6517,-1.655,-1.6588,-1.6646,-1.6679,-1.6726,-1.679,-1.6824,-1.687,-1.6891,-1.6892,-1.6915,-1.6881,-1.6871,-1.688,-1.688,-1.688,-1.688,-1.688,-1.6551,-1.6548,-1.6605,-1.6638,-1.671,-1.6756,-1.6798,-1.6864,-1.6897,-1.6922,-1.6943,-1.6912,-1.6923,-1.6922,-1.6914,-1.6934,-1.6934,-1.6934,-1.6934,-1.6557,-1.6565,-1.6631,-1.6681,-1.6734,-1.6777,-1.6844,-1.6894,-1.6947,-1.697,-1.6972,-1.6965,-1.6962,-1.6975,-1.6973,-1.6967,-1.6999,-1.6999,-1.7,-1.658,-1.6595,-1.6643,-1.6692,-1.6751,-1.6801,-1.6865,-1.6923,-1.6983,-1.7003,-1.6989,-1.6986,-1.6976,-1.697,-1.6989,-1.6985,-1.6974,0,0]},{"header":{"parameterUnit":"m.s-1","parameterCategory":1,"la1":30.2992,"la2":30.254,"lo1":-89.0895,"lo2":-89.0443,"dy":0.0025,"dx":0.0025,"nx":19,"ny":19,"refTime":"2026-04-24T03:00:00:Z","depth":0,"parameterNumber":3,"parameterNumberName":"V-component_of_WINDS"},"data":[0,0,0,4.7478,4.7478,4.747,4.747,4.748,4.748,0,0,0,0,0,0,0,0,0,0,0,4.7491,4.7492,4.7478,4.7478,4.747,4.747,4.748,4.748,0,0,0,0,0,0,0,0,0,0,0,4.7491,4.7491,4.7492,4.7478,4.747,4.747,4.748,4.7479,0,0,0,0,0,0,0,0,0,0,4.7483,4.7506,4.7491,4.7492,4.7478,4.747,4.747,4.7479,4.7479,4.7492,0,4.7506,0,4.7493,4.7482,4.7482,0,0,0,4.747,4.7506,4.7494,4.7492,4.7478,4.747,4.7471,4.7479,4.7479,4.7493,4.7506,4.7505,4.7494,4.7483,4.7483,4.7583,4.7584,0,0,4.747,4.7496,4.7493,4.7495,4.7496,4.7472,4.7471,4.7479,4.7495,4.7506,4.7505,4.7494,4.7483,4.7483,4.7582,4.7584,0,0,0,4.7477,4.7497,4.7484,4.7495,4.7492,4.7472,4.7471,4.7494,4.7488,4.7505,4.7494,4.7483,4.7483,4.7581,4.7583,4.765,0,0,0,4.7477,4.75,4.7484,4.75,4.7492,4.7493,4.7487,4.7487,4.7487,4.7494,4.7483,4.7483,4.758,4.7582,4.7646,4.7677,0,0,0,4.7488,4.7501,4.7504,4.7502,4.7499,4.7492,4.7486,4.7487,4.7481,4.7482,4.7484,4.758,4.7582,4.7643,4.7672,4.7712,0,0,0,4.7507,4.7564,4.7506,4.7565,4.7499,4.7534,4.7485,4.751,4.7519,4.7483,4.7581,4.7583,4.7641,4.7668,4.7708,4.775,4.777,0,0,4.7593,4.7575,4.7608,4.7556,4.7607,4.7533,4.7594,4.7578,4.7555,4.7575,4.7577,4.7647,4.7671,4.7711,4.7872,4.7888,0,0,0,4.7644,4.7668,4.7676,4.7686,4.7675,4.7669,4.7641,4.7635,4.7651,4.757,4.7672,4.7685,4.7708,4.7726,4.774,4.7758,4.7593,4.7592,4.7592,4.7803,4.777,4.7822,4.7789,4.78,4.7771,4.7776,4.7764,4.7728,4.7752,4.7758,4.786,4.7883,4.7893,4.7912,4.7778,4.7778,4.7778,4.7778,4.7926,4.7955,4.7906,4.7939,4.7904,4.7932,4.7907,4.7881,4.7902,4.7853,4.7871,4.7819,4.7911,4.7926,4.7783,4.7782,4.7782,4.7781,4.7781,4.8026,4.8034,4.8026,4.8038,4.8051,4.8016,4.8038,4.8006,4.7976,4.7994,4.7997,4.7995,4.799,4.7998,4.7998,4.7998,4.7999,4.7999,4.7999,4.8134,4.8122,4.8145,4.8139,4.8142,4.8141,4.8114,4.8116,4.811,4.8084,4.8084,4.8046,4.7926,4.7897,4.8004,4.8003,4.8003,4.8002,4.8002,4.827,4.8234,4.827,4.8272,4.8263,4.8279,4.8237,4.8244,4.8241,4.8254,4.8212,4.8129,4.8108,4.8097,4.8073,4.8219,4.8219,4.8219,4.8219,4.8355,4.8342,4.837,4.8377,4.838,4.8346,4.8388,4.8368,4.8342,4.8338,4.8312,4.8277,4.8267,4.8252,4.8238,4.8214,4.8394,4.8394,4.8394,4.8438,4.8423,4.8464,4.8437,4.8428,4.8421,4.846,4.847,4.8433,4.84,4.8335,4.8327,4.827,4.8253,4.8219,4.8197,4.8153,0,0]}]]